Location: Cuzcurrita-R�o Tir�n
(42.5415°N, 2.9642°W)
Time: 02:03:48
(UTC+00:00)

Cosmos 1486 Rocket - Pass Details

Date: 17 January 2021
Orbit: 759 x 783 km, 74.1° (Epoch: 08 March)

Event Time Altitude Azimuth Distance (km) Brightness Sun altitude
Rises 17:31:40 0° 202° (SSW) 3,229 8.0 -5.0°
Reaches altitude 10° 17:34:02 10° 204° (SSW) 2,302 7.2 -5.4°
Maximum altitude 17:39:16 78° 290° (WNW) 787 4.2 -6.3°
Drops below altitude 10° 17:44:30 10° 17° (NNE) 2,304 6.1 -7.2°
Sets 17:46:53 0° 19° (NNE) 3,231 6.8 -7.6°
